カタログに戻る

STARLINK-1134

運用中通信VLEO
NORAD 45048·PAYLOAD·🇺🇸 United States

打ち上げ Jan 29, 2020 から Cape Canaveral Space Force Station

Loading…

次のパス (今後24時間)

TLE

最新Source: CelesTrak SupGP

元期: Sep 15, 2026, 01:16 UTC

1 45048C 20006E   26258.05326389  .00014194  00000+0  11983-3 0  2589
2 45048  53.0199  38.8425 0004917  61.8215 287.5688 15.69088273    18

AllMySatでSTARLINK-1134をリアルタイム追跡

Download on the App Store